sat.trackr.live / text

‹ back to catalog

GPS BIIF-7 (PRN 09)

NORAD 40105 · 2014-045A

PAYLOAD ACTIVE UNKNOWN

§ Identity

Operator
Country
US
Launch date
2014-08-02
Launch site
AFETR
Launch vehicle
Mass (kg)
RCS (m²)
10.79

Purposes: earth_obs, nav

External: N2YO · Heavens-Above · Gunter

§ Orbital elements

Epoch: 2026-05-25T02:50:04.165728Z

Period
718.00 min
Inclination
55.3389°
Eccentricity
0.0032411
Mean motion
2.00556855 rev/d
Perigee alt
20,096.7 km
Apogee alt
20,268.9 km
Semi-major
26,560.9 km
B*
0.0000e+0
RAAN
89.3836°
Arg perigee
118.5325°
Mean anomaly
241.7669°
Rev number
8,561

§ Raw data

GPS BIIF-7  (PRN 09)1 40105U 14045A   26145.11810377 -.00000012  00000+0  00000+0 0  99922 40105  55.3389  89.3836 0032411 118.5325 241.7669  2.00556855 85619

JSON: /api/v1/satellites/40105 · /tle

For live sub-satellite position, see the globe view (requires WebGL).

§ Visibility from observer

Set your observer location to see the next 7 days of passes ≥ 10°. The values pass through the URL so the page stays shareable.

No JS? Fill the form by hand. The geolocation button needs JavaScript.